Regional Weather Roundup
Issued by NWS

Home | Current Version | Previous Version | Graphics & Text | Print | Product List | Glossary On
Versions: 1 2 3 4 5 6 7 8 9 10 11 12 13 14 15 16 17 18 19 20 21 22 23 24 25 26 27 28 29 30 31 32 33 34 35 36 37 38 39 40 41 42 43 44 45 46 47 48 49 50
866
ASUS43 KMPX 280201
RWRMN
WEATHER ROUNDUP FOR MINNESOTA
NATIONAL WEATHER SERVICE TWIN CITIES/CHANHASSEN MN
900 PM CDT MON MAR 27 2017


NOTE: "FAIR" INDICATES FEW OR NO CLOUDS BELOW 12,000 FEET WITH NO
SIGNIFICANT WEATHER AND/OR OBSTRUCTIONS TO VISIBILITY. N/A MEANS
CURRENT SKY AND/OR WEATHER CONDITIONS ARE NOT AVAILABLE.

MNZ060>063-068>070-280300-
   Twin Cities Metro

CITY           SKY/WX    TMP DP  RH WIND       PRES   REMARKS
TWIN CITIES    CLEAR     47  36  65 SE5       29.99R
ST PAUL        CLEAR     45  38  76 CALM      30.00R
CRYSTAL        CLEAR     47  31  53 S3        29.98R
BLAINE         CLEAR     46  36  66 CALM      29.98R
LAKEVILLE      CLEAR     37  36  93 CALM      29.99R
EDEN PRAIRIE   CLEAR     48  36  63 SE5       29.98R
SOUTH ST PAUL  CLEAR     45  35  69 CALM      29.99R
LAKE ELMO      FAIR      41  37  87 CALM      30.00R
$$
MNZ001>005-007-008-013>017-022>024-027-028-280300-
   Northwest Minnesota

CITY           SKY/WX    TMP DP  RH WIND       PRES   REMARKS
BEMIDJI        CLEAR     44  30  57 N6        29.99R
HALLOCK        PTCLDY    37  36  93 NW5       30.05R
ROSEAU         MOCLDY    41  36  81 NE7       30.04R
WARROAD        MOCLDY    39  34  81 N5        30.04R
THIEF RVR FALL PTCLDY   N/A N/A N/A N10       30.02R
CROOKSTON      FOG       37  36  93 NW9       30.04R VSB 1/2
FOSSTON        CLEAR     39  36  87 N6        30.00R
DETROIT LAKES  CLEAR     46  41  81 NW3       30.01R
MOORHEAD       CLEAR     45  43  93 N9        30.01R
PARK RAPIDS    CLEAR     49  24  37 E3        29.98R
MAHNOMEN       FAIR      41  40  95 CALM      30.00R
$$
MNZ006-009>011-018-025>026-280300-
   North Central Minnesota

CITY           SKY/WX    TMP DP  RH WIND       PRES   REMARKS
BAUDETTE       CLOUDY    42  31  64 N8        30.02R
FLAG ISLAND    CLOUDY    41  30  65 N6        30.04R
INTL FALLS     CLOUDY    37  25  61 CALM      30.00R
WASKISH        CLEAR     36  30  80 N5        30.01R
BIG FORK       CLEAR     37  23  56 CALM      30.00R
LONGVILLE      CLEAR     36  30  80 CALM      29.99R
GRAND RAPIDS   CLEAR     39  30  70 CALM      30.02R
CRANE LAKE     CLEAR     30  25  80 CALM      30.02S
ORR            CLEAR     37  25  60 CALM      29.98R
COOK           CLEAR     36  27  69 CALM      30.00S
WALKER         FAIR      40  27  59 CALM      29.99R
$$
MNZ012-019>021-037-280300-
   Northeast Minnesota

CITY           SKY/WX    TMP DP  RH WIND       PRES   REMARKS
DULUTH         CLEAR     39  31  72 SE5       30.00R
ELY            CLEAR     36  21  55 CALM      30.00R
HIBBING        CLEAR     31  26  82 CALM      29.99R
EVELETH        CLEAR     35  25  66 CALM      30.01R
DULUTH HARBOR  CLEAR     36  32  87 CALM      30.03R
TWO HARBORS    CLEAR     36  30  80 CALM      30.00R
SILVER BAY     CLEAR     32  30  93 CALM      30.00R
GRAND MARAIS     N/A     32  29  88 CALM      30.02R
G MARAIS ARPRT CLEAR     34  27  75 CALM      30.01R
$$
MNZ029>031-032-039>041-046>048-054>057-064-280300-
   West Central Minnesota

CITY           SKY/WX    TMP DP  RH WIND       PRES   REMARKS
FERGUS FALLS   CLEAR     50  39  66 NW3       30.02R
WHEATON        PTCLDY    48  36  61 CALM      30.00R
MORRIS         CLEAR     46  34  61 E5        29.98R
ALEXANDRIA     PTCLDY    47  34  60 S3        29.99R
ELBOW LAKE     FAIR      44  35  70 CALM      29.99R
WADENA         PTCLDY    45  34  65 CALM      29.98R
GLENWOOD       CLEAR     46  36  66 SE5       30.00R
APPLETON       PTCLDY    46  37  71 CALM      29.99R
BENSON         CLEAR     50  30  46 SE5       30.01R
ORTONVILLE     PTCLDY    46  36  66 SE3       29.98R
MADISON        CLEAR     48  39  71 CALM      29.98S
WILLMAR        FAIR      45  36  70 NE3       30.01R
$$
MNZ033>034-036-042>043-049>051-058-059-280300-
   Central Minnesota

CITY           SKY/WX    TMP DP  RH WIND       PRES   REMARKS
ST CLOUD       CLEAR     43  36  76 CALM      29.99R
SAUK CENTRE    FAIR      41  34  77 SE3       29.99S
PAYNESVILLE      N/A     42  35  76 CALM      30.01R
AITKIN         CLEAR     37  27  65 CALM      29.98R
PINE RIVER     CLEAR     41  30  65 CALM      30.02R
BRAINERD       CLEAR     40  30  67 CALM      29.99R
STAPLES        CLEAR     45  32  61 SE3       29.99R
LONG PRAIRIE   MOCLDY    43  34  70 SE3       30.00R
LITTLE FALLS   CLEAR     39  32  75 CALM      30.00S
LITCHFIELD     CLEAR     46  37  71 CALM        N/A
BUFFALO        CLEAR     45  35  68 CALM      30.00R
MAPLE LAKE     CLEAR     42  37  82 CALM      30.00R
HUTCHINSON     PTCLDY    44  37  78 CALM      30.00R
$$
MNZ037-044-045-052-053-280300-
   East Central Minnesota

CITY           SKY/WX    TMP DP  RH WIND       PRES   REMARKS
PRINCETON      CLEAR     41  36  81 CALM      30.00R
MORA           CLEAR     37  32  81 CALM      30.02R
CAMBRIDGE      CLEAR     43  34  70 CALM      29.98R
RUSH CITY      CLEAR     44  35  68 CALM      30.00R
MOOSE LAKE     CLEAR     39  32  75 NE3       29.99R
CLOQUET        CLEAR     39  30  70 CALM      30.01R
MCGREGOR       CLEAR     37  30  75 N3        30.00R
$$
MNZ071>073-080-081-089-090-097-098-280300-
   Southwest Minnesota

CITY           SKY/WX    TMP DP  RH WIND       PRES   REMARKS
MONTEVIDEO     PTCLDY    46  34  61 SE3       30.01R
GRANITE FALLS  PTCLDY    51  35  55 SE3       30.00R
CANBY          PTCLDY    47  40  74 CALM      29.99S
MARSHALL       CLEAR     46  38  73 CALM      29.99R
REDWOOD FALLS  CLEAR     52  32  46 SE5       29.98R
OLIVIA         CLEAR     46  34  61 E3        29.98S
PIPESTONE      CLEAR     46  36  66 CALM      29.97R
WINDOM         CLEAR     45  39  81 CALM      29.99R
WORTHINGTON    CLEAR     46  38  73 S6        29.99R
JACKSON        CLEAR     43  36  75 CALM      29.99R
TRACY          CLEAR     48  39  71 S3        29.99R
SLAYTON        CLEAR     43  38  84 SE5       29.99R
$$
MNZ065>067-074>077-082>085-091>093-280300-
   South Central Minnesota

CITY           SKY/WX    TMP DP  RH WIND       PRES   REMARKS
MANKATO        CLEAR     45  39  79 SE5       29.99R
NEW ULM        CLEAR     50  34  53 CALM      29.98R
ST JAMES       CLEAR     45  39  81 CALM      29.99S
FAIRMONT       CLEAR     43  38  82 S3        29.99R
GLENCOE        CLEAR     48  38  69 N3        29.98R
FARIBAULT      CLOUDY    43  39  87 CALM      29.99S
OWATONNA       PTCLDY    43  36  75 CALM      29.99R
WASECA         PTCLDY    43  37  81 CALM      30.00R
ALBERT LEA     CLEAR     43  37  81 CALM      29.98S
$$
MNZ078>079-086>088-094>096-280300-
   Southeast Minnesota

CITY           SKY/WX    TMP DP  RH WIND       PRES   REMARKS
ROCHESTER      MOCLDY    42  39  89 E3        29.98R
RED WING       CLEAR     39  36  87 CALM      29.98R
STANTON        CLEAR     41  37  85 CALM      29.98R
DODGE CENTER   CLEAR     43  37  81 CALM      29.98S
WINONA         MOCLDY    41  36  81 CALM      29.99S
AUSTIN         CLOUDY    45  39  81 CALM      29.98R
PRESTON        CLOUDY    42  38  86 NE3       29.99R
$$
ABBREVIATIONS USED IN REMARKS
   TC - TEMPERATURES IN CELSIUS
  WCI - WIND CHILL INDEX
   HX - HEAT INDEX
  VSB - VISIBILITY
$$




USA.gov is the U.S. government's official web portal to all federal, state and local government web resources and services.